Home   Weather   Lansing   Past weeks

Flag for USA Past Weather in Lansing, Michigan, USA — Yesterday and Last 2 Weeks

Now
64 °F

Passing clouds.


Feels Like: 64 °F
Forecast: 53 / 64 °F
Wind: 15 mph from Southeast

Location: Capital City Airport

Current Time: Sep 26, 2016 at 1:28:34 AM

Latest Report: Sep 26, 2016 at 12:53 AM


Visibility: 10 mi

Pressure: 29.91 "Hg

Humidity: 65%

Dew Point: 52 °F

Location of LansingLocation

Past Weather in Lansing — Graph

°F

Lansing Temperature Yesterday

Maximum temperature yesterday: 74 °F (at 3:53 PM)
Minimum temperature yesterday: 50 °F (at 2:53 AM)
Average temperature yesterday: 62 °F

High & Low Weather Summary for the Past Weeks

 TemperatureHumidityPressure
High83 °F (Sep 19, 3:53 PM)94% (Sep 22, 12:53 AM)30.32 "Hg (Sep 22, 12:53 AM)
Low50 °F (Sep 25, 2:53 AM)32% (Sep 20, 2:53 PM)29.87 "Hg (Sep 17, 3:53 PM)
Average66 °F71%30.11 "Hg
* Reported Sep 10 11:53 PM — Sep 25 11:53 PM, Lansing, Weather by CustomWeather, © 2016

Note: Actual official high and low records may vary slightly from our data, if they occured in-between our weather recording intervals... More about our weather records

Advertising

Lansing Weather History for the Previous 24 Hours

Scroll right to see more
 ConditionsComfort  
Time TempWeatherWind HumidityBarometerVisibility
11:53 PM
Sun, Sep 25
64 °FPartly cloudy.15 mph63%29.93 "Hg10 mi
10:53 PM63 °FPassing clouds.14 mph58%29.96 "Hg10 mi
9:53 PM63 °FClear.16 mph54%29.99 "Hg10 mi
8:53 PM65 °FClear.13 mph51%30.01 "Hg10 mi
7:53 PM68 °FClear.10 mph47%30.01 "Hg10 mi
6:53 PM71 °FSunny.12 mph47%30.02 "Hg10 mi
5:53 PM73 °FSunny.8 mph44%30.03 "Hg10 mi
4:53 PM74 °FSunny.12 mph41%30.05 "Hg10 mi
3:53 PM74 °FSunny.9 mph45%30.08 "Hg10 mi
2:53 PM73 °FSunny.13 mph46%30.11 "Hg10 mi
1:53 PM72 °FOvercast.14 mph49%30.14 "Hg10 mi
12:53 PM69 °FScattered clouds.7 mph55%30.16 "Hg10 mi
11:53 AM67 °FPassing clouds.10 mph59%30.18 "Hg10 mi
10:53 AM65 °FSunny.10 mph63%30.19 "Hg10 mi
9:53 AM61 °FSunny.8 mph67%30.19 "Hg10 mi
8:53 AM56 °FSunny.5 mph75%30.21 "Hg10 mi
7:53 AM52 °FSunny.No wind80%30.21 "Hg10 mi
6:53 AM50 °FClear.No wind83%30.19 "Hg10 mi
5:53 AM50 °FClear.3 mph83%30.20 "Hg10 mi
4:53 AM50 °FClear.3 mph83%30.21 "Hg10 mi
3:53 AM51 °FClear.3 mph80%30.21 "Hg10 mi
2:53 AM50 °FClear.5 mph83%30.22 "Hg10 mi
1:53 AM51 °FClear.5 mph83%30.23 "Hg10 mi
Weather by CustomWeather, © 2016

See weather overviewHow to use our weather pages